This demonstration page uses our WeatherBlox Daily Observations layout. Learn more.

41.55636, -103.73856

Hourly Observations for September 12, 2017

Temp ( °F °C ) Dew Point ( °F °C ) Humidity (%) Winds ( mph kmh ) Pressure ( in mb ) Visibility ( mi km ) Precip ( " mm )
12:53 am 00:53 Clear 66 18.9 55 12.8 68 68 ESE 3 6 29.96 1015 10 16.0934 0 0
1:53 am 01:53 Clear 64 17.8 54 12.2 70 70 E 5 7 29.95 1014 10 16.0934 0 0
2:53 am 02:53 Clear 60 15.6 52 11.1 75 75 WNW 8 13 29.95 1014 10 16.0934 0 0
3:53 am 03:53 Clear 59 15 51 10.6 75 75 WNW 5 7 29.95 1014 10 16.0934 0 0
4:53 am 04:53 Clear 58 14.4 53 11.7 84 84 NNW 5 7 29.96 1014 10 16.0934 0 0
5:53 am 05:53 Clear 57 13.9 51 10.6 81 81 Calm 29.94 1014 10 16.0934 0 0
6:53 am 06:53 Sunny 57 13.9 51 10.6 81 81 Calm 29.96 1015 10 16.0934 0 0
7:53 am 07:53 Sunny 64 17.8 52 11.1 65 65 Calm 29.96 1015 10 16.0934 0 0
8:53 am 08:53 Sunny 69 20.6 54 12.2 59 59 WNW 7 11 29.95 1014 10 16.0934 0 0
9:53 am 09:53 Sunny 75 23.9 51 10.6 43 43 Calm 29.94 1014 10 16.0934 0 0
10:53 am 10:53 Sunny 81 27.2 50 10 34 34 WSW 3 6 29.91 1013 10 16.0934 0 0
11:53 am 11:53 Sunny 87 30.6 47 8.3 25 25 VRB 3 6 29.88 1012 10 16.0934 0 0
12:53 pm 12:53 Sunny 91 32.8 50 10 25 25 Calm 29.84 1011 10 16.0934 0 0
1:53 pm 13:53 Sunny 94 34.4 51 10.6 23 23 E 6 9 29.8 1009 10 16.0934 0 0
2:53 pm 14:53 Sunny 96 35.6 50 10 21 21 VRB 3 6 29.78 1008 10 16.0934 0 0
3:53 pm 15:53 Sunny 95 35 45 7.2 18 18 VRB 7 11 29.76 1008 10 16.0934 0 0
4:53 pm 16:53 Sunny 95 35 38 3.3 14 14 Calm 29.75 1007 10 16.0934 0 0
5:53 pm 17:53 Sunny 92 33.3 48 8.9 22 22 ESE 7 11 29.75 1007 10 16.0934 0 0
6:53 pm 18:53 Sunny 82 27.8 55 12.8 40 40 E 5 7 29.75 1008 10 16.0934 0 0
7:53 pm 19:53 Clear 75 23.9 51 10.6 43 43 E 7 11 29.76 1008 10 16.0934 0 0
8:53 pm 20:53 Clear 76 24.4 49 9.4 39 39 ENE 10 17 29.77 1008 10 16.0934 0 0
9:53 pm 21:53 Clear 72 22.2 50 10 46 46 ESE 5 7 29.76 1008 10 16.0934 0 0
10:53 pm 22:53 Clear 71 21.7 48 8.9 44 44 ESE 7 11 29.76 1008 10 16.0934 0 0
11:53 pm 23:53 Clear 64 17.8 51 10.6 63 63 NNE 5 7 29.74 1007 10 16.0934 0 0

Powered by AerisWeather